This is the latest recevied weather packets stored in our database for station/object N9OJR. If no packets are shown the sender has not sent any weather packets the latest 10 day(s).
| Time | Temp. | Humidity | Pressure | Rain* | Wind** | Luminosity | Snow |
|---|---|---|---|---|---|---|---|
| 1777215605 | 9.44° C | 93% | 1016.1 hPa | 0 mm | - | 125 W/m² | - |
| 1777215301 | 9.44° C | 94% | 1016.2 hPa | 0 mm | - | 122 W/m² | - |
| 1777214997 | 8.89° C | 94% | 1016 hPa | 0 mm | - | 105 W/m² | - |
| 1777214696 | 9.44° C | 93% | 1016.2 hPa | 0 mm | - | 108 W/m² | - |
| 1777214390 | 8.89° C | 94% | 1016.1 hPa | 0 mm | - | 114 W/m² | - |
| 1777214085 | 8.89° C | 94% | 1016.2 hPa | 0 mm | - | 102 W/m² | - |
| 1777213784 | 8.89° C | 94% | 1016 hPa | 0 mm | - | 88 W/m² | - |
| 1777213480 | 8.89° C | 94% | 1016 hPa | 0 mm | - | 85 W/m² | - |
| 1777213178 | 8.89° C | 94% | 1015.8 hPa | 0 mm | - | 86 W/m² | - |
| 1777212874 | 8.89° C | 94% | 1015.9 hPa | 0 mm | - | 85 W/m² | - |
| 1777212572 | 8.89° C | 94% | 1016 hPa | 0 mm | - | 85 W/m² | - |
| 1777212270 | 8.89° C | 94% | 1016.1 hPa | 0 mm | - | 78 W/m² | - |
| 1777211965 | 8.89° C | 94% | 1016.1 hPa | 0 mm | - | 78 W/m² | - |
| 1777211660 | 8.89° C | 94% | 1015.9 hPa | 0 mm | - | 78 W/m² | - |
| 1777211356 | 8.89° C | 94% | 1015.9 hPa | 0 mm | - | 76 W/m² | - |
| 1777211052 | 8.89° C | 93% | 1015.9 hPa | 0 mm | - | 86 W/m² | - |
| 1777210749 | 8.89° C | 93% | 1015.9 hPa | 0 mm | - | 97 W/m² | - |
| 1777210442 | 8.89° C | 94% | 1015.8 hPa | 0 mm | - | 102 W/m² | - |
| 1777210139 | 8.89° C | 93% | 1015.8 hPa | 0 mm | - | 94 W/m² | - |
| 1777209836 | 8.89° C | 94% | 1015.8 hPa | 0 mm | - | 100 W/m² | - |
| 1777209531 | 8.89° C | 94% | 1015.8 hPa | 0 mm | - | 89 W/m² | - |
| 1777209227 | 8.89° C | 94% | 1015.6 hPa | 0 mm | - | 88 W/m² | - |
| 1777208924 | 8.89° C | 94% | 1015.9 hPa | 0 mm | - | 93 W/m² | - |
| 1777208615 | 8.33° C | 94% | 1015.8 hPa | 0 mm | - | 96 W/m² | - |
| 1777208311 | 8.89° C | 94% | 1015.8 hPa | 0 mm | - | 93 W/m² | - |
* Rain latest hour (hover to see other rain measurements)
** Current wind speed in m/s (hover to see current wind gust speed)